Location: Newark
(45.8667°N, 9.7333°E)
Time: 00:33:34
(UTC+00:00)

Vanguard 3 - Pass Details

Date: 27 January 2020
Orbit: 508 x 3263 km, 33.3° (Epoch: 26 February)

Event Time Altitude Azimuth Distance (km) Brightness Sun altitude
Rises 13:24:04 0° 190° (S) 6,299 13.0 20.9°
Reaches altitude 10° 13:29:38 10° 176° (S) 5,666 12.5 20.5°
Maximum altitude 13:41:19 21° 136° (SE) 5,226 11.5 19.4°
Drops below altitude 10° 13:53:46 10° 96° (E) 6,134 11.4 18.2°
Sets 14:00:04 0° 83° (E) 6,957 11.5 17.6°
